Location: Unspecified
(47.9110°N, 14.3980°E)
Time: 21:25:50
(UTC+00:00)

Cosmos 2233 Rocket - Pass Details

Date: 06 August 2020
Orbit: 952 x 991 km, 82.9° (Epoch: 21 September)

Event Time Altitude Azimuth Distance (km) Brightness Sun altitude
Exits shadow 22:26:06 54° 140° (SE) 1,195 4.1 -25.0°
Maximum altitude 22:27:17 63° 93° (E) 1,097 4.1 -25.1°
Drops below altitude 10° 22:33:32 10° 14° (NNE) 2,766 7.2 -25.3°
Sets 22:36:05 0° 12° (NNE) 3,719 8.2 -25.3°
